Wind_Speed
9 11 13 14 15 16 16 16 18 20 22 25 28 32 34 36 39 41 43 44 44 43 44 42 40 38 38 40 42 44 45 46 48 50 50 51 51 51 51 51 51 52 54 55
11 12 14 15 16 16 17 18 19 21 23 26 29 33 35 38 40 43 44 44 44 44 44 42 40 38 39 41 43 45 46 48 49 50 50 50 50 50 50 49 49 49 50 52
14 15 16 16 16 17 18 19 21 23 25 28 31 34 37 39 42 44 45 45 45 44 43 42 40 39 40 42 44 46 47 48 49 50 49 49 49 48 47 45 44 44 45 46
16 17 16 16 17 17 18 20 22 24 27 29 32 35 38 40 43 45 46 46 45 44 43 42 41 40 41 43 45 46 47 48 50 50 49 48 47 45 42 40 39 38 39 40
17 18 18 17 17 18 19 20 23 25 27 30 33 36 39 42 45 47 47 48 47 46 44 43 41 41 42 44 45 46 47 49 50 49 47 46 44 41 39 35 33 33 33 35
18 18 18 19 18 20 21 22 24 26 28 31 34 36 39 43 45 47 48 48 47 46 45 43 42 41 43 44 46 47 48 49 49 48 46 43 41 38 35 31 29 28 27 28
18 19 20 19 20 21 24 25 27 28 30 32 35 38 40 43 45 48 48 49 48 47 46 44 42 42 43 45 46 47 48 48 48 47 45 42 39 35 32 29 26 23 21 21
18 19 21 20 21 22 24 26 28 29 31 33 36 39 42 44 46 48 49 48 48 47 45 44 43 42 43 44 46 47 47 47 47 46 43 40 37 33 30 27 23 18 15 15
19 20 21 21 22 23 25 27 28 29 31 34 36 40 43 45 47 48 49 49 48 47 46 44 43 43 43 44 45 46 46 46 45 44 42 38 34 31 27 24 20 15 10 9
20 20 21 22 23 24 26 27 28 30 32 34 37 41 43 46 47 48 49 49 48 47 45 44 42 42 43 43 45 45 45 45 44 42 40 37 33 29 26 22 18 13 8 5
20 21 22 22 24 25 26 27 28 30 33 35 39 42 45 47 48 48 49 49 48 47 45 44 42 42 42 43 44 44 44 43 42 41 39 35 32 28 24 21 17 12 7 2
21 21 22 23 24 25 27 28 29 31 34 37 40 43 45 47 48 48 48 48 48 47 45 43 41 41 41 42 43 43 43 42 41 40 38 34 31 27 23 21 17 11 6 1
21 21 22 23 25 26 28 29 30 33 35 38 41 44 46 47 48 48 48 48 47 46 44 42 40 40 40 41 42 42 42 41 40 39 37 34 30 26 22 20 17 12 6 2
20 21 23 24 26 27 29 30 32 35 37 40 42 45 46 47 47 47 47 47 46 45 43 42 40 39 39 39 40 41 40 39 39 38 36 33 30 25 22 18 16 12 7 2
22 23 24 26 28 29 31 32 35 37 39 41 43 45 45 45 46 46 47 46 45 44 42 41 39 37 37 38 38 39 39 38 37 37 35 32 29 25 22 19 15 12 8 4
24 25 27 29 30 31 33 35 37 39 40 42 43 44 44 44 44 46 46 46 45 43 41 40 38 36 35 36 36 36 37 37 37 35 34 32 29 25 23 19 15 12 9 6
28 29 30 31 33 34 36 38 39 40 41 42 42 42 42 42 43 44 46 46 44 42 40 38 37 35 34 34 33 34 35 36 36 35 33 31 29 26 23 19 15 13 11 8
33 33 34 35 36 37 39 39 39 40 41 42 41 41 41 41 42 43 44 43 43 42 40 38 36 34 32 31 31 31 32 33 34 33 32 31 29 26 23 20 17 14 12 10
37 37 37 38 38 39 39 39 39 40 40 40 40 40 39 40 41 42 42 42 41 40 39 37 34 32 30 29 28 29 29 31 31 31 31 30 29 26 23 20 19 17 15 12
40 40 40 39 39 39 39 38 38 38 39 38 38 38 37 38 39 40 41 41 40 39 37 35 33 30 29 27 25 26 26 27 28 29 28 28 28 27 24 22 19 18 18 17
41 40 40 39 38 37 37 37 37 37 37 37 36 35 36 38 38 39 39 39 39 38 36 35 32 29 27 25 23 22 23 24 25 26 25 25 26 26 25 23 21 19 17 16
39 39 38 38 37 37 37 36 36 37 37 37 36 36 36 37 38 38 38 37 37 37 35 34 31 28 25 23 21 19 19 20 21 22 23 22 23 24 24 24 23 21 19 17
40 39 39 39 38 38 38 37 37 37 37 36 37 36 36 36 36 36 35 35 35 35 34 32 30 27 24 22 20 17 17 17 17 18 19 20 20 20 22 23 23 22 21 21
44 42 42 42 40 39 38 38 37 37 36 35 35 35 35 35 34 34 33 33 34 34 32 31 29 26 23 20 18 16 14 14 14 14 15 16 17 18 19 20 20 20 20 21
49 47 45 44 43 41 39 39 38 37 35 35 35 35 34 33 32 32 32 32 32 32 31 30 28 25 22 19 17 15 13 12 11 11 11 12 13 14 15 16 17 18 18 18
53 51 49 47 44 42 40 39 37 37 36 35 35 34 32 32 32 31 31 31 31 31 30 29 27 24 21 19 16 14 12 10 9 8 8 8 9 10 11 12 13 14 16 16
56 54 52 49 46 44 42 40 37 37 37 36 35 34 33 32 31 30 30 30 30 30 29 27 26 23 20 18 15 13 11 9 7 6 5 5 5 6 7 8 9 10 11 12
Wind_Direction
327 328 329 331 334 334 333 334 335 336 337 337 338 337 338 337 336 335 334 332 330 329 328 326 323 321 319 319 319 319 318 316 314 311 308 304 300 296 292 286 279 272 266 260
330 328 326 328 328 329 331 333 335 336 336 337 337 336 338 338 338 337 336 334 332 331 330 329 326 322 321 321 322 321 320 319 317 315 313 309 305 301 296 289 282 275 268 260
326 325 324 323 327 328 329 330 332 334 334 336 337 336 338 339 339 338 337 336 334 333 333 332 329 326 325 325 325 324 323 323 321 319 316 313 309 305 302 295 286 278 270 262
321 321 323 323 323 325 326 327 329 331 332 334 336 336 338 339 339 339 338 337 336 335 335 334 332 330 329 329 329 328 327 326 324 322 320 318 315 311 306 300 290 281 272 263
319 321 319 318 320 323 326 328 327 329 331 333 336 337 338 340 340 340 339 339 338 337 337 336 335 333 333 332 332 331 330 329 328 326 325 322 320 317 312 305 295 285 275 265
316 317 316 317 322 324 326 328 329 330 332 334 337 338 339 340 340 340 340 340 339 338 338 338 336 335 335 335 335 334 333 333 332 330 329 327 325 323 319 313 303 292 279 266
311 313 312 317 321 324 327 329 331 332 334 336 337 339 340 340 340 341 341 340 340 339 339 339 338 337 337 337 337 337 337 337 336 335 334 333 330 329 327 321 314 302 284 267
307 308 310 315 319 323 326 328 330 332 334 336 337 338 339 340 340 341 341 341 341 340 340 339 339 339 339 339 340 340 340 340 340 340 339 338 337 334 333 330 324 315 294 266
307 306 308 313 317 321 324 327 329 331 334 335 336 337 338 339 340 341 341 341 341 341 341 341 340 341 341 342 342 343 343 344 344 344 344 343 342 341 340 338 334 327 308 269
305 305 307 311 315 319 323 325 328 330 333 334 335 336 338 339 340 340 341 341 342 343 343 342 342 342 343 344 345 345 346 347 347 347 348 348 347 346 346 346 344 342 331 279
305 305 307 310 314 317 321 324 326 329 332 333 334 335 337 338 339 340 341 342 342 343 344 344 343 343 344 345 347 348 348 349 349 349 350 352 351 351 352 352 351 350 347 313
305 306 307 310 314 316 319 322 325 327 330 332 333 335 337 338 340 341 341 342 343 343 344 344 345 345 346 348 349 350 351 352 352 352 353 354 354 354 354 354 354 357 5 30
303 305 307 310 313 315 318 320 322 325 328 330 331 333 336 338 340 341 342 342 343 344 344 345 346 347 348 350 351 352 353 354 356 356 356 356 357 357 356 357 359 360 5 52
303 305 307 310 312 314 316 318 321 323 325 327 329 332 334 337 340 342 343 343 343 344 345 346 347 347 349 351 353 354 355 357 358 359 359 0 1 2 1 2 4 5 11 52
303 305 308 310 312 313 314 316 319 321 323 326 328 331 334 336 339 342 343 343 343 344 345 346 347 348 349 352 354 356 357 359 1 2 3 4 6 8 9 9 11 14 26 65
303 306 307 309 310 311 312 314 317 319 321 324 326 330 333 335 338 341 343 343 344 344 345 346 347 348 350 353 355 358 359 1 4 6 6 8 11 14 16 17 21 27 40 66
302 303 304 305 306 308 310 312 315 317 319 321 323 327 330 333 336 339 341 343 343 344 345 345 347 348 350 353 356 358 0 3 6 10 10 11 13 16 19 24 30 38 48 62
298 299 301 303 304 305 307 310 312 314 316 318 320 324 328 331 334 337 340 342 343 343 344 345 346 348 350 353 356 358 1 4 8 12 15 17 19 22 26 32 38 43 52 62
293 296 297 299 300 302 304 307 309 311 314 316 318 322 326 329 332 336 339 341 342 342 343 344 345 347 349 351 355 358 1 5 9 13 18 22 26 29 33 39 45 50 56 63
288 290 291 293 295 298 301 303 305 309 312 314 317 320 324 327 331 335 338 340 341 342 342 342 344 345 347 350 353 356 1 6 10 15 20 25 29 33 37 42 48 54 58 65
284 286 287 290 293 295 297 300 302 307 310 311 313 317 320 324 329 333 336 338 340 341 341 341 342 343 345 348 350 354 359 4 10 15 20 26 31 34 38 44 47 52 56 62
282 283 285 287 290 291 293 296 298 302 306 307 310 313 316 321 325 329 333 336 338 339 339 339 340 342 342 345 347 351 355 1 8 15 20 26 30 34 39 45 50 54 58 64
281 281 283 284 286 288 289 292 293 295 300 305 308 311 314 318 323 326 330 333 336 337 337 337 338 339 340 342 344 347 351 357 4 11 19 26 31 35 41 47 52 58 62 68
278 278 278 280 282 284 286 287 289 291 296 302 306 309 313 317 320 323 327 330 334 335 335 335 335 336 337 338 340 342 345 351 359 7 16 26 33 40 46 51 56 61 68 72
276 276 276 277 280 281 282 283 285 289 292 296 300 304 309 313 317 321 324 328 331 333 333 333 333 333 334 335 335 336 338 343 351 0 10 23 34 43 52 57 62 69 74 76
274 275 275 275 276 277 277 277 280 285 289 292 294 298 302 307 312 317 321 324 327 330 330 330 330 331 330 331 331 330 330 332 340 350 2 15 29 42 54 64 70 74 78 81
272 273 273 274 273 273 273 274 277 280 283 286 289 292 296 301 306 311 317 321 324 326 328 327 327 327 326 325 326 323 321 320 323 334 348 3 19 37 53 66 76 82 85 87
Height
5851 5849 5847 5844 5842 5839 5836 5833 5829 5825 5820 5815 5809 5803 5797 5791 5783 5775 5767 5758 5749 5740 5732 5723 5715 5707 5700 5692 5685 5676 5668 5659 5650 5641 5632 5624 5615 5608 5601 5596 5592 5590 5590 5591
5849 5847 5844 5842 5839 5836 5832 5829 5825 5821 5816 5810 5805 5798 5792 5785 5777 5769 5760 5751 5742 5733 5724 5715 5706 5698 5691 5683 5674 5665 5656 5646 5636 5626 5616 5607 5598 5589 5582 5576 5571 5568 5567 5568
5847 5844 5841 5839 5836 5832 5829 5824 5821 5816 5812 5806 5800 5793 5787 5779 5771 5762 5753 5744 5734 5725 5716 5707 5698 5689 5681 5673 5664 5654 5644 5634 5623 5612 5602 5591 5581 5571 5563 5556 5551 5548 5547 5547
5843 5841 5838 5837 5832 5829 5825 5821 5816 5811 5807 5801 5795 5788 5781 5773 5765 5756 5747 5737 5727 5718 5708 5699 5690 5681 5672 5663 5653 5643 5633 5622 5611 5599 5588 5577 5566 5556 5547 5540 5534 5531 5529 5529
5840 5837 5835 5832 5828 5824 5821 5817 5812 5807 5802 5797 5790 5783 5775 5767 5758 5749 5739 5730 5719 5709 5700 5691 5682 5673 5664 5654 5644 5633 5623 5611 5600 5587 5576 5564 5553 5543 5534 5526 5520 5516 5514 5514
5835 5833 5830 5828 5824 5820 5817 5813 5808 5803 5797 5791 5785 5779 5772 5762 5753 5744 5733 5723 5713 5703 5693 5684 5675 5665 5656 5646 5635 5625 5613 5602 5589 5577 5565 5554 5543 5532 5523 5515 5509 5505 5503 5502
5831 5828 5826 5823 5819 5816 5813 5809 5802 5797 5791 5785 5779 5773 5766 5757 5748 5738 5727 5717 5707 5696 5686 5677 5668 5658 5648 5638 5628 5617 5605 5593 5581 5568 5557 5545 5534 5524 5516 5508 5501 5496 5494 5493
5827 5825 5823 5818 5814 5811 5808 5802 5797 5791 5786 5780 5774 5767 5759 5751 5741 5732 5722 5712 5701 5691 5680 5670 5661 5652 5642 5632 5621 5610 5598 5586 5574 5561 5550 5538 5528 5519 5511 5503 5496 5491 5488 5487
5824 5822 5817 5813 5809 5806 5801 5797 5792 5787 5781 5775 5769 5762 5754 5746 5736 5726 5716 5706 5696 5685 5675 5664 5654 5645 5636 5626 5615 5604 5592 5580 5568 5556 5545 5534 5524 5515 5507 5500 5494 5489 5485 5484
5817 5815 5811 5808 5804 5801 5796 5792 5787 5782 5776 5770 5764 5757 5749 5740 5731 5721 5711 5700 5690 5680 5669 5659 5649 5640 5630 5620 5610 5599 5588 5576 5564 5553 5542 5532 5522 5513 5506 5499 5493 5488 5485 5484
5812 5810 5806 5803 5799 5795 5791 5786 5782 5776 5771 5765 5759 5751 5743 5735 5725 5716 5705 5695 5685 5674 5664 5654 5645 5635 5626 5616 5606 5595 5584 5573 5562 5551 5540 5530 5521 5513 5506 5500 5494 5489 5486 5485
5807 5804 5801 5798 5794 5790 5786 5781 5776 5771 5766 5760 5753 5745 5737 5729 5720 5710 5700 5690 5680 5670 5660 5650 5641 5632 5622 5613 5603 5592 5582 5571 5560 5550 5539 5530 5521 5513 5506 5500 5495 5491 5488 5487
5801 5798 5795 5792 5788 5784 5780 5776 5771 5766 5760 5754 5747 5740 5732 5723 5714 5705 5695 5685 5676 5666 5656 5647 5638 5629 5620 5610 5600 5590 5580 5570 5559 5549 5539 5529 5521 5514 5508 5502 5497 5493 5490 5489
5795 5792 5789 5786 5782 5778 5774 5770 5765 5760 5754 5748 5741 5734 5726 5718 5709 5700 5691 5681 5672 5662 5653 5644 5635 5626 5617 5608 5599 5589 5579 5570 5560 5550 5540 5530 5522 5515 5509 5503 5499 5495 5492 5491
5788 5786 5783 5779 5776 5772 5768 5763 5759 5753 5748 5741 5735 5728 5720 5712 5704 5696 5687 5678 5669 5659 5650 5641 5632 5624 5616 5607 5598 5589 5580 5570 5561 5551 5541 5532 5524 5517 5511 5505 5501 5497 5495 5494
5781 5778 5775 5772 5769 5765 5761 5757 5752 5746 5741 5735 5728 5722 5715 5707 5699 5691 5683 5674 5665 5656 5647 5639 5630 5622 5614 5606 5598 5590 5581 5572 5562 5553 5544 5535 5527 5520 5514 5508 5504 5501 5499 5498
5773 5771 5768 5765 5761 5758 5753 5749 5744 5739 5733 5728 5722 5716 5709 5702 5695 5687 5678 5670 5661 5653 5645 5637 5629 5621 5613 5606 5598 5590 5582 5574 5565 5556 5547 5539 5531 5524 5517 5512 5508 5505 5503 5502
5765 5763 5760 5757 5753 5749 5745 5741 5736 5731 5726 5721 5715 5710 5704 5697 5690 5683 5675 5666 5658 5650 5642 5634 5626 5619 5612 5605 5598 5591 5584 5576 5568 5560 5551 5543 5535 5528 5522 5517 5513 5510 5508 5506
5756 5753 5751 5747 5744 5740 5736 5733 5728 5724 5719 5714 5709 5703 5698 5692 5685 5678 5671 5663 5655 5647 5640 5632 5625 5618 5611 5605 5599 5593 5586 5579 5571 5564 5556 5548 5541 5534 5529 5523 5519 5516 5513 5511
5746 5743 5740 5737 5734 5731 5728 5724 5720 5716 5711 5707 5702 5697 5691 5686 5680 5673 5666 5659 5652 5645 5637 5630 5623 5617 5610 5605 5599 5594 5588 5582 5575 5568 5561 5554 5548 5541 5535 5530 5526 5523 5520 5517
5735 5732 5730 5727 5724 5721 5718 5715 5711 5708 5703 5699 5694 5690 5685 5680 5674 5668 5662 5655 5648 5641 5634 5628 5621 5615 5609 5604 5599 5594 5589 5584 5578 5572 5566 5560 5554 5548 5542 5537 5533 5529 5527 5524
5723 5721 5718 5716 5714 5711 5708 5705 5702 5699 5695 5691 5687 5682 5678 5673 5668 5662 5657 5651 5644 5638 5631 5625 5619 5613 5608 5603 5598 5594 5590 5586 5581 5576 5571 5565 5560 5555 5550 5545 5540 5537 5534 5531
5710 5708 5707 5705 5703 5700 5698 5695 5692 5689 5686 5682 5678 5675 5671 5667 5662 5657 5651 5646 5640 5634 5628 5622 5616 5611 5606 5602 5598 5594 5590 5587 5583 5579 5575 5570 5566 5561 5557 5552 5548 5545 5542 5540
5696 5695 5694 5692 5690 5689 5687 5684 5682 5679 5676 5673 5670 5667 5663 5659 5655 5650 5646 5641 5635 5630 5624 5619 5614 5609 5604 5600 5596 5593 5590 5587 5584 5581 5578 5574 5570 5567 5563 5559 5556 5553 5551 5549
5680 5679 5679 5678 5677 5676 5675 5673 5671 5668 5666 5664 5661 5659 5656 5652 5648 5644 5640 5635 5631 5625 5620 5616 5611 5606 5602 5598 5594 5591 5589 5587 5584 5582 5579 5577 5574 5572 5569 5566 5563 5561 5559 5558
5662 5663 5663 5663 5663 5663 5662 5660 5659 5658 5656 5654 5652 5650 5647 5644 5641 5638 5634 5630 5625 5621 5616 5611 5607 5603 5599 5595 5592 5590 5587 5586 5584 5582 5580 5579 5577 5575 5573 5571 5569 5568 5566 5565
5644 5644 5645 5646 5647 5647 5647 5646 5646 5646 5645 5644 5642 5640 5638 5636 5634 5630 5627 5623 5620 5615 5611 5607 5603 5599 5596 5592 5590 5587 5585 5584 5583 5582 5581 5579 5578 5577 5576 5575 5574 5573 5572 5571